Location: *
(50.6089°N, 2.2719°E)
Time: 18:30:08
(UTC+00:00)

STARLINK-63 - Pass Details

Date: 18 October 2019
Orbit: 549 x 551 km, 53.0° (Epoch: 11 November)

Event Time Altitude Azimuth Distance (km) Brightness Sun altitude
Rises 19:12:13 0° 275° (W) 2,718 8.6 -22.7°
Reaches altitude 10° 19:14:29 10° 279° (W) 1,825 7.4 -23.0°
Enters shadow 19:18:32 61° 355° (N) 630 3.9 -23.6°
